Home > Weather > Brantford > Past weeks

Flag for Canada Past Weather in Brantford, Ontario, Canada — Yesterday and Last 2 Weeks

Now
63 °F

Passing clouds.


Feels Like: 63 °F
Forecast: 57 / 82 °F
Wind: 7 mph from Southwest

Location: Hamilton Airport

Current Time: Aug 24, 2016 at 2:34:56 AM

Latest Report: Aug 24, 2016 at 12:00 AM


Visibility: 15 mi

Pressure: 30.23 "Hg

Humidity: 83%

Dew Point: 57 °F

Location of BrantfordLocation

Past Weather in Brantford — Graph

°F

Brantford Temperature Yesterday

Maximum temperature yesterday: 79 °F (at 2:00 PM)
Minimum temperature yesterday: 54 °F (at 6:00 AM)
Average temperature yesterday: 67 °F

High & Low Weather Summary for the Past Weeks

 TemperatureHumidityPressure
High90 °F (Aug 10, 3:00 PM)100% (Aug 10, 3:00 AM)30.28 "Hg (Aug 10, 3:00 AM)
Low54 °F (Aug 23, 6:00 AM)38% (Aug 9, 2:00 PM)29.59 "Hg (Aug 21, 3:00 AM)
Average73 °F79%29.99 "Hg
* Reported Aug 9 12:00 AM — Aug 24 12:00 AM, Brantford, Weather by CustomWeather, © 2016

Note: Actual official high and low records may vary slightly from our data, if they occured in-between our weather recording intervals... More about our weather records

Advertising

Brantford Weather History for the Previous 24 Hours

Scroll right to see more
 ConditionsComfort  
Time TempWeatherWind HumidityBarometerVisibility
12:00 AM
Wed, Aug 24
63 °FPassing clouds.7 mph83%30.23 "Hg15 mi
11:00 PM
Tue, Aug 23
64 °FPassing clouds.6 mph78%30.23 "Hg15 mi
10:00 PM64 °FPassing clouds.6 mph78%30.24 "Hg15 mi
9:00 PM68 °FPassing clouds.3 mph69%30.24 "Hg15 mi
8:00 PM70 °FPassing clouds.5 mph69%30.23 "Hg15 mi
7:00 PM75 °FPassing clouds.10 mph57%30.23 "Hg15 mi
6:00 PM77 °FPassing clouds.14 mph54%30.23 "Hg15 mi
5:00 PM79 °FPassing clouds.14 mph54%30.23 "Hg15 mi
4:00 PM79 °FScattered clouds.14 mph54%30.23 "Hg15 mi
3:00 PM79 °FPartly sunny.16 mph58%30.25 "Hg15 mi
2:00 PM79 °FBroken clouds.17 mph58%30.25 "Hg15 mi
1:00 PM77 °FBroken clouds.14 mph61%30.26 "Hg15 mi
12:00 PM77 °FScattered clouds.15 mph57%30.26 "Hg15 mi
11:00 AM75 °FScattered clouds.15 mph57%30.27 "Hg15 mi
10:00 AM72 °FPassing clouds.13 mph69%30.28 "Hg15 mi
9:00 AM66 °FPassing clouds.8 mph78%30.28 "Hg15 mi
8:00 AM61 °FPassing clouds.3 mph88%30.28 "Hg15 mi
7:00 AM54 °FPassing clouds.3 mph94%30.28 "Hg15 mi
6:00 AM54 °FPassing clouds.3 mph100%30.27 "Hg15 mi
5:00 AM55 °FClear.3 mph94%30.26 "Hg15 mi
4:00 AM55 °FClear.5 mph94%30.25 "Hg15 mi
3:00 AM57 °FClear.5 mph88%30.25 "Hg15 mi
2:00 AM57 °FClear.3 mph88%30.24 "Hg15 mi
Weather by CustomWeather, © 2016

See weather overviewHow to use our weather pages